User: anonymous
Location: Drayton Valley
(53.2170°N, 114.9830°W)
Time: 18:53:27
(UTC-06:00)
Language:

MOZ.5/SAFIR/RUBIN 5/SL-8 - Orbit

View from above orbital plane
View from above orbital plane
View from above satellite
View from above satellite

Ground track
Ground track

The orbit data is extracted from the following two-line orbital elements,

1 28898U 05043G   14258.45194372  .00000387  00000-0  90341-4 0  9160
2 28898 097.8368 083.0413 0021461 111.5672 303.5447 14.59537502473094
Epoch (UTC): 15 September 2014 10:50:47
Eccentricity: 0.0021461
inclination: 97.8368°
perigee height: 679 km
apogee height: 710 km
right ascension of ascending node: 83.0413°
argument of perigee: 111.5672°
revolutions per day: 14.59537502
mean anomaly at epoch: 303.5447°
orbit number at epoch: 47309

The dashed part of the orbit path shows where the satellite is in the earth's shadow,  

DLR